THY3YB EDDM-LTFM

Flight info

Callsign THY3YB
Flight time 2h 13m
Altitude 41000
Route KIRDI2E/08R KIRDI DCT BUBSE DCT GOTAR DCT NALOX DCT BABIT DCT KOTUS DCT IRGOR DCT ETIDA T390 RILEX
Aircraft A359/H-SDE2E3GHIJ3J4J5LM1ORWXY/LB1D1

Departure

Time 2026-05-01 12:46
Airport Munich Airport (EDDM)

Arrival

Time 2026-05-01 14:59
Airport İstanbul Airport (LTFM)
Time Latitude Longitude Altitude Speed Heading
2026-05-01 12:05 48.35711 11.78204 1480 ft 0 kts 83°
2026-05-01 12:08 48.35737 11.79214 1466 ft 0 kts 264°
2026-05-01 12:28 48.35741 11.79282 1464 ft 4 kts 264°
2026-05-01 12:29 48.35744 11.79323 1464 ft 4 kts 264°
2026-05-01 12:29 48.35747 11.79363 1464 ft 4 kts 263°
2026-05-01 12:29 48.35755 11.79415 1469 ft 4 kts 195°
2026-05-01 12:30 48.35791 11.79399 1464 ft 4 kts 168°
2026-05-01 12:30 48.35800 11.79396 1464 ft 5 kts 175°
2026-05-01 12:35 48.35773 11.79400 1464 ft 13 kts 171°
2026-05-01 12:36 48.35725 11.79423 1467 ft 7 kts 157°
2026-05-01 12:36 48.35679 11.79465 1468 ft 8 kts 144°
2026-05-01 12:36 48.35631 11.79527 1467 ft 9 kts 141°
2026-05-01 12:36 48.35585 11.79568 1467 ft 7 kts 154°
2026-05-01 12:37 48.35557 11.79584 1476 ft 0 kts 162°
2026-05-01 12:37 48.35494 11.79598 1469 ft 20 kts 176°
2026-05-01 12:37 48.35376 11.79606 1475 ft 17 kts 177°
2026-05-01 12:37 48.35258 11.79622 1481 ft 17 kts 173°
2026-05-01 12:38 48.35140 11.79631 1482 ft 17 kts 187°
2026-05-01 12:38 48.35021 11.79590 1473 ft 17 kts 199°
2026-05-01 12:38 48.34940 11.79553 1476 ft 7 kts 185°
2026-05-01 12:38 48.34895 11.79553 1482 ft 6 kts 176°
2026-05-01 12:39 48.34886 11.79555 1484 ft 0 kts 174°
2026-05-01 12:40 48.34810 11.79533 1472 ft 13 kts 225°
2026-05-01 12:40 48.34779 11.79399 1476 ft 17 kts 258°
2026-05-01 12:40 48.34757 11.79163 1488 ft 22 kts 263°
2026-05-01 12:41 48.34739 11.78925 1489 ft 24 kts 263°
2026-05-01 12:41 48.34719 11.78670 1481 ft 26 kts 263°
2026-05-01 12:41 48.34707 11.78390 1490 ft 28 kts 266°
2026-05-01 12:41 48.34684 11.78099 1481 ft 29 kts 263°
2026-05-01 12:42 48.34662 11.77791 1492 ft 30 kts 265°
2026-05-01 12:42 48.34631 11.77472 1485 ft 32 kts 263°
2026-05-01 12:42 48.34604 11.77136 1494 ft 33 kts 263°
2026-05-01 12:42 48.34579 11.76809 1482 ft 26 kts 264°
2026-05-01 12:43 48.34561 11.76550 1486 ft 24 kts 264°
2026-05-01 12:43 48.34541 11.76287 1496 ft 26 kts 263°
2026-05-01 12:43 48.34520 11.76026 1497 ft 25 kts 263°
2026-05-01 12:43 48.34500 11.75750 1498 ft 27 kts 264°
2026-05-01 12:44 48.34476 11.75455 1499 ft 27 kts 264°
2026-05-01 12:44 48.34453 11.75182 1500 ft 25 kts 259°
2026-05-01 12:44 48.34167 11.75125 1501 ft 23 kts 156°
2026-05-01 12:45 48.34089 11.75399 1502 ft 0 kts 83°
2026-05-01 12:45 48.34113 11.75693 1500 ft 66 kts 83°
2026-05-01 12:45 48.34161 11.76308 1498 ft 112 kts 83°
2026-05-01 12:46 48.34279 11.77774 1503 ft 168 kts 83°
2026-05-01 12:46 48.34427 11.79594 2167 ft 175 kts 84°
2026-05-01 12:46 48.34541 11.81416 3080 ft 180 kts 85°
2026-05-01 12:46 48.34646 11.83418 3640 ft 205 kts 85°
2026-05-01 12:47 48.34815 11.85677 4106 ft 232 kts 83°
2026-05-01 12:47 48.35014 11.88129 5044 ft 237 kts 84°
2026-05-01 12:47 48.35215 11.90586 6081 ft 233 kts 85°
2026-05-01 12:47 48.35298 11.93023 6853 ft 234 kts 95°
2026-05-01 12:48 48.34857 11.95455 7354 ft 250 kts 112°
2026-05-01 12:48 48.34139 11.97860 8086 ft 260 kts 114°
2026-05-01 12:48 48.33371 12.00347 9113 ft 264 kts 113°
2026-05-01 12:48 48.32602 12.02893 10134 ft 270 kts 112°
2026-05-01 12:49 48.31822 12.05504 11054 ft 275 kts 111°
2026-05-01 12:49 48.31035 12.08159 11967 ft 281 kts 111°
2026-05-01 12:49 48.30236 12.10859 12887 ft 286 kts 111°
2026-05-01 12:49 48.29425 12.13615 13835 ft 290 kts 111°
2026-05-01 12:50 48.28609 12.16380 14697 ft 295 kts 110°
2026-05-01 12:50 48.27770 12.19206 15527 ft 298 kts 111°
2026-05-01 12:50 48.26923 12.22071 16349 ft 302 kts 110°
2026-05-01 12:50 48.26066 12.24961 17200 ft 305 kts 110°
2026-05-01 12:51 48.25201 12.27880 18041 ft 308 kts 110°
2026-05-01 12:51 48.24324 12.30831 18867 ft 311 kts 110°
2026-05-01 12:51 48.23361 12.37168 20024 ft 323 kts 89°
2026-05-01 12:52 48.23329 12.40631 20372 ft 340 kts 88°
2026-05-01 12:52 48.23280 12.48003 21078 ft 371 kts 88°
2026-05-01 12:52 48.23238 12.51965 21493 ft 385 kts 89°
2026-05-01 12:53 48.22865 12.60117 22784 ft 399 kts 95°
2026-05-01 12:53 48.22475 12.64267 23483 ft 404 kts 95°
2026-05-01 12:53 48.22072 12.68462 24151 ft 408 kts 95°
2026-05-01 12:54 48.21667 12.72698 24749 ft 413 kts 95°
2026-05-01 12:54 48.20892 12.81313 25903 ft 420 kts 91°
2026-05-01 12:54 48.20796 12.85704 26484 ft 422 kts 87°
2026-05-01 12:55 48.20936 12.94527 27644 ft 429 kts 84°
2026-05-01 12:55 48.21061 12.99026 28218 ft 433 kts 84°
2026-05-01 12:55 48.21186 13.03553 28767 ft 437 kts 84°
2026-05-01 12:56 48.21305 13.08143 29332 ft 441 kts 84°
2026-05-01 12:56 48.21413 13.12754 29853 ft 445 kts 85°
2026-05-01 12:56 48.21514 13.17429 30380 ft 449 kts 85°
2026-05-01 12:56 48.21607 13.22061 30825 ft 452 kts 85°
2026-05-01 12:57 48.21697 13.26797 31290 ft 454 kts 85°
2026-05-01 12:57 48.21834 13.36342 32140 ft 460 kts 88°
2026-05-01 12:57 48.21545 13.41151 32552 ft 467 kts 95°
2026-05-01 12:58 48.20784 13.45858 32955 ft 474 kts 104°
2026-05-01 12:58 48.19484 13.50444 33317 ft 482 kts 114°
2026-05-01 12:58 48.17810 13.54828 33787 ft 484 kts 117°
2026-05-01 12:59 48.14217 13.63348 34824 ft 481 kts 118°
2026-05-01 12:59 48.12400 13.67557 35224 ft 481 kts 118°
2026-05-01 12:59 48.08801 13.75938 36004 ft 480 kts 118°
2026-05-01 13:00 48.05213 13.84379 36740 ft 480 kts 118°
2026-05-01 13:00 48.03427 13.88591 37105 ft 479 kts 118°
2026-05-01 13:01 47.99872 13.96961 37832 ft 479 kts 118°
2026-05-01 13:01 47.98088 14.01150 38170 ft 479 kts 118°
2026-05-01 13:01 47.94511 14.09529 38859 ft 478 kts 118°
2026-05-01 13:02 47.92717 14.13721 39148 ft 478 kts 118°
2026-05-01 13:07 47.54444 15.01609 41353 ft 486 kts 119°
2026-05-01 13:07 47.52585 15.05803 41348 ft 486 kts 119°
2026-05-01 13:08 47.48873 15.14165 41350 ft 486 kts 119°
2026-05-01 13:08 47.45156 15.22514 41350 ft 486 kts 119°
2026-05-01 13:09 47.41425 15.30867 41346 ft 486 kts 119°
2026-05-01 13:09 47.37715 15.39153 41331 ft 486 kts 119°
2026-05-01 13:10 47.33975 15.47479 41350 ft 487 kts 119°
2026-05-01 13:10 47.30218 15.55813 41358 ft 487 kts 119°
2026-05-01 13:11 47.26462 15.64127 41347 ft 487 kts 120°
2026-05-01 13:11 47.22724 15.72374 41350 ft 487 kts 120°
2026-05-01 13:12 47.18949 15.80670 41347 ft 487 kts 120°
2026-05-01 13:12 47.15167 15.88955 41350 ft 488 kts 120°
2026-05-01 13:13 47.11379 15.97232 41351 ft 488 kts 120°
2026-05-01 13:13 47.07598 16.05473 41352 ft 488 kts 120°
2026-05-01 13:14 47.03816 16.13692 41350 ft 488 kts 120°
2026-05-01 13:14 47.00207 16.22129 41350 ft 484 kts 111°
2026-05-01 13:15 46.97848 16.31278 41346 ft 478 kts 104°
2026-05-01 13:15 46.95859 16.40532 41351 ft 478 kts 103°
2026-05-01 13:16 46.93903 16.49838 41352 ft 478 kts 103°
2026-05-01 13:16 46.91921 16.59129 41352 ft 478 kts 103°
2026-05-01 13:17 46.87903 16.77620 41349 ft 479 kts 104°
2026-05-01 13:18 46.85003 16.86517 41350 ft 486 kts 116°
2026-05-01 13:18 46.83280 16.90712 41349 ft 488 kts 117°
2026-05-01 13:18 46.79658 16.99124 41349 ft 489 kts 118°
2026-05-01 13:19 46.75999 17.07500 41349 ft 489 kts 118°
2026-05-01 13:20 46.70546 17.20037 41350 ft 489 kts 118°
2026-05-01 13:20 46.66904 17.28415 41351 ft 489 kts 118°
2026-05-01 13:21 46.61447 17.40928 41346 ft 490 kts 118°
2026-05-01 13:21 46.57781 17.49295 41349 ft 490 kts 118°
2026-05-01 13:22 46.54109 17.57652 41345 ft 490 kts 118°
2026-05-01 13:22 46.50432 17.65997 41345 ft 490 kts 118°
2026-05-01 13:23 46.46775 17.74275 41346 ft 490 kts 118°
2026-05-01 13:23 46.43084 17.82603 41340 ft 490 kts 118°
2026-05-01 13:24 46.39386 17.90920 41340 ft 491 kts 118°
2026-05-01 13:25 46.33826 18.03379 41341 ft 491 kts 118°
2026-05-01 13:25 46.30122 18.11646 41340 ft 491 kts 118°
2026-05-01 13:26 46.26393 18.19946 41340 ft 492 kts 118°
2026-05-01 13:26 46.22660 18.28232 41333 ft 492 kts 119°
2026-05-01 13:27 46.18939 18.36465 41339 ft 492 kts 119°
2026-05-01 13:27 46.13310 18.48872 41341 ft 492 kts 119°
2026-05-01 13:28 46.07672 18.61246 41337 ft 492 kts 119°
2026-05-01 13:29 46.00138 18.77698 41333 ft 493 kts 120°
2026-05-01 13:31 45.87945 19.01650 41324 ft 498 kts 127°
2026-05-01 13:32 45.76592 19.20449 41322 ft 500 kts 127°
2026-05-01 13:33 45.65215 19.39234 41320 ft 501 kts 128°
2026-05-01 13:34 45.56826 19.53006 41317 ft 501 kts 128°
2026-05-01 13:35 45.49939 19.64267 41311 ft 502 kts 128°
2026-05-01 13:36 45.43039 19.75495 41313 ft 502 kts 128°
2026-05-01 13:36 45.36144 19.86676 41307 ft 503 kts 128°
2026-05-01 13:37 45.31517 19.94155 41306 ft 503 kts 129°
2026-05-01 13:37 45.26683 20.01382 41309 ft 505 kts 133°
2026-05-01 13:38 45.19119 20.11876 41312 ft 506 kts 133°
2026-05-01 13:39 45.14147 20.18855 41316 ft 506 kts 133°
2026-05-01 13:39 45.09168 20.25903 41317 ft 506 kts 133°
2026-05-01 13:40 45.04182 20.32959 41319 ft 506 kts 133°
2026-05-01 13:40 44.99193 20.39997 41318 ft 507 kts 133°
2026-05-01 13:41 44.94196 20.47025 41316 ft 507 kts 133°
2026-05-01 13:41 44.89230 20.53991 41312 ft 507 kts 133°
2026-05-01 13:42 44.84210 20.61012 41309 ft 507 kts 133°
2026-05-01 13:42 44.79185 20.68019 41301 ft 507 kts 134°
2026-05-01 13:43 44.74188 20.74972 41294 ft 508 kts 134°
2026-05-01 13:43 44.69244 20.82082 41287 ft 507 kts 130°
2026-05-01 13:44 44.64672 20.89633 41286 ft 507 kts 128°
2026-05-01 13:44 44.60162 20.97199 41286 ft 507 kts 129°
2026-05-01 13:45 44.55566 21.04731 41280 ft 508 kts 129°
2026-05-01 13:45 44.50927 21.12220 41283 ft 508 kts 129°
2026-05-01 13:46 44.46298 21.19647 41285 ft 508 kts 129°
2026-05-01 13:46 44.41635 21.27114 41291 ft 508 kts 130°
2026-05-01 13:47 44.36971 21.34573 41289 ft 509 kts 130°
2026-05-01 13:47 44.32327 21.41978 41283 ft 509 kts 130°
2026-05-01 13:48 44.27654 21.49410 41288 ft 509 kts 130°
2026-05-01 13:48 44.22966 21.56849 41290 ft 510 kts 130°
2026-05-01 13:49 44.18276 21.64272 41289 ft 510 kts 130°
2026-05-01 13:49 44.13582 21.71680 41290 ft 510 kts 130°
2026-05-01 13:50 44.08882 21.79078 41288 ft 510 kts 130°
2026-05-01 13:50 44.04169 21.86478 41289 ft 510 kts 130°
2026-05-01 13:51 43.99450 21.93866 41288 ft 511 kts 131°
2026-05-01 13:51 43.94758 22.01194 41290 ft 511 kts 131°
2026-05-01 13:52 43.90022 22.08574 41290 ft 511 kts 131°
2026-05-01 13:52 43.85269 22.15957 41289 ft 512 kts 131°
2026-05-01 13:53 43.80549 22.23273 41290 ft 512 kts 131°
2026-05-01 13:53 43.73417 22.34289 41292 ft 512 kts 131°
2026-05-01 13:54 43.68839 22.41840 41295 ft 512 kts 123°
2026-05-01 13:54 43.65363 22.50342 41301 ft 511 kts 116°
2026-05-01 13:55 43.62145 22.59113 41302 ft 511 kts 116°
2026-05-01 13:55 43.58955 22.67913 41308 ft 512 kts 116°
2026-05-01 13:56 43.55762 22.76629 41312 ft 512 kts 116°
2026-05-01 13:56 43.52525 22.85388 41314 ft 513 kts 116°
2026-05-01 13:57 43.49821 22.92669 41314 ft 513 kts 116°
2026-05-01 13:57 43.46010 23.02902 41319 ft 513 kts 117°
2026-05-01 13:58 43.42758 23.11603 41320 ft 513 kts 117°
2026-05-01 13:58 43.39475 23.20360 41321 ft 514 kts 117°
2026-05-01 13:59 43.36207 23.29048 41322 ft 514 kts 117°
2026-05-01 13:59 43.32911 23.37791 41321 ft 514 kts 117°
2026-05-01 14:00 43.29632 23.46462 41322 ft 515 kts 117°
2026-05-01 14:00 43.26317 23.55197 41323 ft 515 kts 117°
2026-05-01 14:01 43.22996 23.63922 41320 ft 516 kts 117°
2026-05-01 14:01 43.19667 23.72640 41326 ft 516 kts 117°
2026-05-01 14:02 43.16351 23.81300 41324 ft 517 kts 118°
2026-05-01 14:02 43.12995 23.90035 41320 ft 517 kts 118°
2026-05-01 14:03 43.09638 23.98747 41318 ft 517 kts 118°
2026-05-01 14:03 43.06295 24.07398 41320 ft 517 kts 118°
2026-05-01 14:04 43.02919 24.16106 41319 ft 518 kts 118°
2026-05-01 14:04 43.00102 24.23350 41316 ft 518 kts 118°
2026-05-01 14:05 42.96154 24.33469 41316 ft 518 kts 118°
2026-05-01 14:05 42.92756 24.42158 41318 ft 519 kts 118°
2026-05-01 14:06 42.89349 24.50848 41312 ft 519 kts 118°
2026-05-01 14:06 42.85965 24.59476 41313 ft 519 kts 118°
2026-05-01 14:07 42.82543 24.68174 41311 ft 519 kts 119°
2026-05-01 14:08 42.77417 24.81109 41306 ft 519 kts 119°
2026-05-01 14:08 42.73973 24.89764 41299 ft 520 kts 119°
2026-05-01 14:09 42.70516 24.98430 41301 ft 520 kts 119°
2026-05-01 14:09 42.67055 25.07085 41295 ft 520 kts 119°
2026-05-01 14:10 42.63590 25.15722 41292 ft 521 kts 119°
2026-05-01 14:10 42.60137 25.24303 41289 ft 521 kts 120°
2026-05-01 14:11 42.56654 25.32932 41288 ft 521 kts 120°
2026-05-01 14:11 42.51431 25.45825 41281 ft 522 kts 120°
2026-05-01 14:12 42.47922 25.54454 41276 ft 522 kts 120°
2026-05-01 14:12 42.44412 25.63061 41270 ft 522 kts 120°
2026-05-01 14:13 42.41482 25.70227 41264 ft 522 kts 120°
2026-05-01 14:13 42.37375 25.80243 41265 ft 522 kts 120°
2026-05-01 14:14 42.33839 25.88836 41263 ft 523 kts 120°
2026-05-01 14:14 42.30311 25.97386 41261 ft 523 kts 120°
2026-05-01 14:15 42.26755 26.05979 41258 ft 523 kts 120°
2026-05-01 14:15 42.23935 26.12782 41253 ft 523 kts 120°
2026-05-01 14:16 42.20367 26.21352 41253 ft 523 kts 121°
2026-05-01 14:16 42.16815 26.29856 41249 ft 523 kts 121°
2026-05-01 14:17 42.13233 26.38414 41250 ft 524 kts 121°
2026-05-01 14:17 42.09643 26.46966 41248 ft 524 kts 121°
2026-05-01 14:18 42.06071 26.55452 41248 ft 524 kts 121°
2026-05-01 14:18 42.03070 26.62561 41247 ft 524 kts 121°
2026-05-01 14:19 41.98865 26.72498 40883 ft 518 kts 121°
2026-05-01 14:19 41.97102 26.76653 40278 ft 518 kts 121°
2026-05-01 14:19 41.95275 26.80848 39644 ft 519 kts 123°
2026-05-01 14:20 41.93385 26.84989 39047 ft 519 kts 123°
2026-05-01 14:20 41.89603 26.93256 37615 ft 519 kts 123°
2026-05-01 14:20 41.87712 26.97408 36907 ft 519 kts 123°
2026-05-01 14:21 41.85854 27.01478 36278 ft 518 kts 123°
2026-05-01 14:21 41.83977 27.05586 35748 ft 514 kts 123°
2026-05-01 14:21 41.82116 27.09656 35270 ft 509 kts 123°
2026-05-01 14:22 41.78316 27.17550 34349 ft 498 kts 127°
2026-05-01 14:22 41.76335 27.21335 33844 ft 494 kts 127°
2026-05-01 14:22 41.74380 27.25084 33366 ft 489 kts 127°
2026-05-01 14:22 41.73097 27.27557 33070 ft 485 kts 127°
2026-05-01 14:23 41.71167 27.31226 32619 ft 478 kts 129°
2026-05-01 14:23 41.68864 27.34352 32158 ft 467 kts 146°
2026-05-01 14:23 41.66085 27.36460 31697 ft 454 kts 162°
2026-05-01 14:23 41.63079 27.37588 31257 ft 445 kts 171°
2026-05-01 14:24 41.60065 27.38466 30789 ft 441 kts 171°
2026-05-01 14:24 41.57092 27.39376 30444 ft 434 kts 170°
2026-05-01 14:24 41.54193 27.40314 30226 ft 425 kts 169°
2026-05-01 14:24 41.51356 27.41265 29965 ft 415 kts 169°
2026-05-01 14:25 41.48621 27.42193 29736 ft 406 kts 169°
2026-05-01 14:25 41.45921 27.43158 29500 ft 398 kts 166°
2026-05-01 14:25 41.43470 27.44837 29172 ft 399 kts 145°
2026-05-01 14:25 41.41583 27.47538 28746 ft 401 kts 124°
2026-05-01 14:26 41.40509 27.50909 28300 ft 403 kts 103°
2026-05-01 14:26 41.41195 27.58130 27401 ft 397 kts 60°
2026-05-01 14:26 41.42875 27.60983 26975 ft 388 kts 38°
2026-05-01 14:27 41.45151 27.62790 26568 ft 378 kts 15°
2026-05-01 14:27 41.47690 27.63331 26142 ft 366 kts 353°
2026-05-01 14:27 41.50109 27.62558 25730 ft 354 kts 330°
2026-05-01 14:28 41.53174 27.57889 24936 ft 336 kts 286°
2026-05-01 14:28 41.53712 27.54907 24559 ft 333 kts 278°
2026-05-01 14:28 41.53900 27.51823 24146 ft 332 kts 268°
2026-05-01 14:28 41.53540 27.48794 23736 ft 331 kts 253°
2026-05-01 14:29 41.52492 27.46058 23261 ft 333 kts 234°
2026-05-01 14:29 41.50789 27.43967 22799 ft 336 kts 214°
2026-05-01 14:30 41.44025 27.44218 21463 ft 352 kts 146°
2026-05-01 14:30 41.42369 27.46613 21048 ft 355 kts 122°
2026-05-01 14:30 41.41563 27.49708 20617 ft 356 kts 97°
2026-05-01 14:31 41.42849 27.55822 19793 ft 348 kts 53°
2026-05-01 14:31 41.44036 27.58640 19343 ft 349 kts 68°
2026-05-01 14:31 41.44766 27.61728 18983 ft 348 kts 74°
2026-05-01 14:31 41.45380 27.64832 18593 ft 346 kts 75°
2026-05-01 14:32 41.45981 27.67935 18167 ft 345 kts 75°
2026-05-01 14:32 41.46574 27.71025 17739 ft 343 kts 75°
2026-05-01 14:32 41.47164 27.74099 17331 ft 341 kts 75°
2026-05-01 14:32 41.47744 27.77109 16961 ft 337 kts 75°
2026-05-01 14:33 41.48327 27.80139 16578 ft 334 kts 75°
2026-05-01 14:33 41.48828 27.83151 16185 ft 332 kts 82°
2026-05-01 14:33 41.48828 27.86216 15813 ft 329 kts 95°
2026-05-01 14:33 41.48597 27.89236 15450 ft 327 kts 96°
2026-05-01 14:34 41.48345 27.92239 15102 ft 323 kts 96°
2026-05-01 14:34 41.48100 27.95214 14738 ft 321 kts 96°
2026-05-01 14:34 41.47794 27.98155 14346 ft 319 kts 103°
2026-05-01 14:34 41.46920 28.00830 13953 ft 316 kts 126°
2026-05-01 14:35 41.45407 28.02873 13373 ft 306 kts 143°
2026-05-01 14:35 41.43738 28.04601 12972 ft 308 kts 144°
2026-05-01 14:35 41.42028 28.06352 12111 ft 309 kts 143°
2026-05-01 14:35 41.40343 28.08091 11351 ft 303 kts 143°
2026-05-01 14:36 41.38540 28.09533 10812 ft 301 kts 160°
2026-05-01 14:36 41.36509 28.10054 10514 ft 295 kts 178°
2026-05-01 14:36 41.34477 28.10111 10249 ft 288 kts 181°
2026-05-01 14:36 41.32529 28.10116 10092 ft 278 kts 181°
2026-05-01 14:37 41.30615 28.10130 9867 ft 271 kts 180°
2026-05-01 14:37 41.28733 28.10149 9508 ft 270 kts 180°
2026-05-01 14:37 41.26866 28.10150 9498 ft 269 kts 182°
2026-05-01 14:37 41.24997 28.09581 9751 ft 284 kts 208°
2026-05-01 14:38 41.23428 28.08048 10111 ft 273 kts 225°
2026-05-01 14:38 41.22055 28.06249 10205 ft 282 kts 227°
2026-05-01 14:38 41.20659 28.04379 10224 ft 285 kts 226°
2026-05-01 14:38 41.19286 28.02575 10202 ft 274 kts 225°
2026-05-01 14:39 41.17793 28.01075 10207 ft 267 kts 213°
2026-05-01 14:39 41.16189 27.99838 10207 ft 266 kts 211°
2026-05-01 14:39 41.14572 27.98641 10222 ft 266 kts 211°
2026-05-01 14:39 41.12948 27.97437 10210 ft 266 kts 210°
2026-05-01 14:40 41.11317 27.96258 10209 ft 267 kts 208°
2026-05-01 14:40 41.09600 27.95388 10207 ft 268 kts 197°
2026-05-01 14:40 41.07795 27.94750 10212 ft 268 kts 195°
2026-05-01 14:40 41.05980 27.94149 10206 ft 268 kts 195°
2026-05-01 14:41 41.04166 27.93545 10223 ft 268 kts 195°
2026-05-01 14:41 41.02348 27.92968 10205 ft 269 kts 192°
2026-05-01 14:41 41.00484 27.92760 10208 ft 269 kts 181°
2026-05-01 14:41 40.98608 27.92776 10206 ft 269 kts 179°
2026-05-01 14:42 40.96749 27.92845 10204 ft 270 kts 176°
2026-05-01 14:42 40.94935 27.93446 10203 ft 270 kts 153°
2026-05-01 14:42 40.93508 27.95019 10213 ft 268 kts 125°
2026-05-01 14:42 40.92791 27.97270 10201 ft 266 kts 97°
2026-05-01 14:43 40.92908 27.99652 10214 ft 263 kts 71°
2026-05-01 14:43 40.93510 28.01932 10201 ft 264 kts 72°
2026-05-01 14:43 40.93904 28.04304 10132 ft 260 kts 79°
2026-05-01 14:43 40.94177 28.06628 9990 ft 250 kts 80°
2026-05-01 14:44 40.94422 28.08866 9662 ft 249 kts 80°
2026-05-01 14:44 40.94906 28.13364 9040 ft 244 kts 79°
2026-05-01 14:44 40.95141 28.15586 8736 ft 242 kts 80°
2026-05-01 14:45 40.95374 28.17796 8317 ft 244 kts 79°
2026-05-01 14:45 40.95840 28.22204 7655 ft 241 kts 79°
2026-05-01 14:45 40.96070 28.24375 7138 ft 234 kts 78°
2026-05-01 14:46 40.96296 28.26494 6530 ft 231 kts 78°
2026-05-01 14:46 40.96725 28.30618 5425 ft 218 kts 78°
2026-05-01 14:46 40.96929 28.32583 4874 ft 213 kts 78°
2026-05-01 14:47 40.97128 28.34504 4351 ft 209 kts 78°
2026-05-01 14:47 40.97326 28.36390 4038 ft 207 kts 77°
2026-05-01 14:47 40.97515 28.38308 3982 ft 210 kts 79°
2026-05-01 14:48 40.97572 28.42143 3980 ft 209 kts 84°
2026-05-01 14:48 40.97567 28.44067 3985 ft 210 kts 84°
2026-05-01 14:48 40.97558 28.47924 3988 ft 210 kts 85°
2026-05-01 14:49 40.97179 28.51816 3695 ft 215 kts 96°
2026-05-01 14:49 40.96551 28.55613 3024 ft 208 kts 96°
2026-05-01 14:50 40.96155 28.58033 2991 ft 202 kts 95°
2026-05-01 14:50 40.95957 28.62871 2994 ft 196 kts 83°
2026-05-01 14:51 40.95985 28.64677 2992 ft 196 kts 83°
2026-05-01 14:51 40.96521 28.68120 2994 ft 189 kts 54°
2026-05-01 14:52 40.98588 28.70146 2988 ft 188 kts 26°
2026-05-01 14:52 40.99796 28.70752 2985 ft 185 kts 19°
2026-05-01 14:52 41.02361 28.71251 2997 ft 188 kts
2026-05-01 14:53 41.03676 28.71235 2990 ft 189 kts
2026-05-01 14:53 41.04983 28.71195 2980 ft 183 kts
2026-05-01 14:53 41.06186 28.71155 2977 ft 168 kts
2026-05-01 14:53 41.07337 28.71122 3011 ft 163 kts
2026-05-01 14:54 41.08470 28.71100 2998 ft 163 kts
2026-05-01 14:54 41.09604 28.71078 2989 ft 163 kts
2026-05-01 14:54 41.10742 28.71058 2988 ft 163 kts
2026-05-01 14:54 41.11879 28.71037 2986 ft 163 kts
2026-05-01 14:55 41.13019 28.71013 2987 ft 165 kts
2026-05-01 14:55 41.14162 28.70985 2793 ft 163 kts
2026-05-01 14:55 41.15268 28.70958 2619 ft 154 kts
2026-05-01 14:55 41.16309 28.70934 2525 ft 144 kts
2026-05-01 14:56 41.17274 28.70928 2437 ft 135 kts
2026-05-01 14:56 41.18188 28.70949 2315 ft 128 kts
2026-05-01 14:56 41.19056 28.70979 2109 ft 121 kts
2026-05-01 14:56 41.19875 28.70901 1953 ft 116 kts
2026-05-01 14:57 41.20688 28.70824 1796 ft 118 kts
2026-05-01 14:57 41.22308 28.70840 1285 ft 116 kts
2026-05-01 14:57 41.23112 28.70805 1097 ft 117 kts
2026-05-01 14:58 41.23923 28.70781 904 ft 116 kts
2026-05-01 14:58 41.24725 28.70771 744 ft 116 kts
2026-05-01 14:58 41.25593 28.70736 626 ft 134 kts
2026-05-01 14:58 41.26526 28.70726 406 ft 131 kts
2026-05-01 14:59 41.27389 28.70709 337 ft 119 kts
2026-05-01 14:59 41.28121 28.70709 353 ft 90 kts 359°
2026-05-01 14:59 41.28676 28.70706 331 ft 70 kts 357°
2026-05-01 14:59 41.29084 28.70689 336 ft 48 kts 357°
2026-05-01 15:00 41.29613 28.70685 346 ft 25 kts 18°
2026-05-01 15:00 41.29653 28.70786 336 ft 0 kts 87°
2026-05-01 15:01 41.29657 28.70898 337 ft 24 kts 89°
2026-05-01 15:01 41.29658 28.71098 335 ft 16 kts 100°
2026-05-01 15:01 41.29570 28.71164 323 ft 18 kts 176°
2026-05-01 15:01 41.29469 28.71202 320 ft 11 kts 117°
2026-05-01 15:02 41.29449 28.71327 301 ft 17 kts 129°
2026-05-01 15:02 41.29416 28.71362 289 ft 17 kts 152°
2026-05-01 15:02 41.29377 28.71370 285 ft 0 kts 177°